Weather History for Poplar Bluff, MO

Change the Weather History Date:

Sunday, December 22, 2013

  Actual Average Record
Temperature  
Mean Temperature 40 °F -  
Max Temperature 45 °F 44 °F 72 °F (1931)
Min Temperature 34 °F 23 °F -10 °F (1989)
Degree Days  
Heating Degree Days 26    
Moisture  
Dew Point 34 °F    
Average Humidity 74    
Maximum Humidity 89    
Minimum Humidity 58    
Precipitation  
Precipitation 0.00 in - - ()
Sea Level Pressure  
Sea Level Pressure 29.93 in    
Wind  
Wind Speed 8 mph (West)    
Max Wind Speed 15 mph    
Max Gust Speed 21 mph    
Visibility 8 miles    
Events      
Averages and records for this station are not official NWS values.
T = Trace of Precipitation, MM = Missing Value Source: NWS Daily Summary

Daily Weather History Graph

Daily Weather History Graph

Search for Another Location

Airport:

Trip Planner

Search our weather history database for the weather conditions in past years. The results will help you decide how hot, cold, wet, or windy it might be!

Date:

Astronomy

Dec. 22, 2013 Rise Set
Actual Time 7:10 AM CST 4:49 PM CST
Civil Twilight 6:41 AM CST 5:18 PM CST
Nautical Twilight 6:09 AM CST 5:50 PM CST
Astronomical Twilight 5:37 AM CST 6:22 PM CST
Moon 9:54 PM CST (12/22) 10:13 AM CST (12/22)
Length of Visible Light 10h 36m
Length of Day
9h 38m
Waning Gibbous, 76% of the Moon is Illuminated
Dec 22
Waning Gibbous
Dec 25
Last Quarter
Jan 1
New
Jan 7
First Quarter
Jan 15
Full

Hourly Weather History & Observations

Time (CST) Temp. Windchill Dew Point Humidity Pressure Visibility Wind Dir Wind Speed Gust Speed Precip Events Conditions
12:07 AM 39.9 °F 34.5 °F 34.0 °F 79% 29.70 in 10.0 mi WSW 8.1 mph - N/A   Overcast
12:53 AM 39.9 °F 33.4 °F 35.1 °F 83% 29.74 in 10.0 mi West 10.4 mph - N/A   Overcast
1:53 AM 41.0 °F 39.0 °F 36.0 °F 82% 29.72 in 10.0 mi WSW 3.5 mph - N/A   Overcast
2:40 AM 41.0 °F 38.0 °F 37.0 °F 86% 29.73 in 2.5 mi SSW 4.6 mph - N/A   Overcast
2:53 AM 41.0 °F 37.1 °F 37.0 °F 86% 29.75 in 2.0 mi SSW 5.8 mph - N/A   Overcast
3:07 AM 41.0 °F 38.0 °F 37.0 °F 86% 29.74 in 2.0 mi SSW 4.6 mph - N/A   Overcast
3:42 AM 42.1 °F 38.4 °F 37.9 °F 85% 29.74 in 1.8 mi South 5.8 mph - N/A   Overcast
3:53 AM 42.1 °F 39.2 °F 37.9 °F 85% 29.76 in 2.0 mi South 4.6 mph - N/A   Overcast
4:02 AM 42.1 °F 40.2 °F 37.9 °F 85% 29.75 in 1.8 mi SSW 3.5 mph - N/A   Overcast
4:53 AM 43.0 °F 41.3 °F 39.0 °F 86% 29.78 in 1.5 mi SSW 3.5 mph - N/A   Overcast
5:12 AM 43.0 °F 41.3 °F 39.0 °F 86% 29.78 in 2.0 mi SW 3.5 mph - N/A   Overcast
5:24 AM 43.0 °F 40.3 °F 39.9 °F 89% 29.79 in 1.8 mi SW 4.6 mph - N/A   Overcast
5:43 AM 44.1 °F 42.5 °F 39.9 °F 85% 29.81 in 2.0 mi WSW 3.5 mph - N/A   Overcast
5:53 AM 44.1 °F 41.5 °F 39.9 °F 85% 29.81 in 3.0 mi WSW 4.6 mph - N/A   Overcast
6:17 AM 45.0 °F 41.2 °F 41.0 °F 86% 29.81 in 7.0 mi West 6.9 mph - N/A   Overcast
6:53 AM 44.1 °F 37.4 °F 39.0 °F 82% 29.84 in 10.0 mi West 13.8 mph 18.4 mph N/A   Overcast
7:06 AM 44.1 °F 38.6 °F 39.0 °F 82% 29.84 in 10.0 mi West 10.4 mph - N/A   Overcast
7:13 AM 44.1 °F 39.0 °F 39.0 °F 82% 29.84 in 10.0 mi West 9.2 mph - N/A   Overcast
7:48 AM 44.6 °F 40.7 °F 37.4 °F 76% 29.84 in 10.0 mi WNW 6.9 mph - N/A   Overcast
7:53 AM 44.1 °F 40.1 °F 37.9 °F 79% 29.86 in 10.0 mi WNW 6.9 mph - N/A   Mostly Cloudy
8:05 AM 44.1 °F 40.8 °F 37.9 °F 79% 29.85 in 10.0 mi WNW 5.8 mph - N/A   Scattered Clouds
8:39 AM 45.0 °F 42.6 °F 37.9 °F 76% 29.86 in 10.0 mi WNW 4.6 mph - N/A   Mostly Cloudy
8:53 AM 45.0 °F 42.6 °F 37.9 °F 76% 29.90 in 10.0 mi SSW 4.6 mph - N/A   Overcast
9:33 AM 45.0 °F 40.1 °F 37.0 °F 74% 29.90 in 10.0 mi WNW 9.2 mph - N/A   Overcast
9:53 AM 44.1 °F 38.6 °F 37.0 °F 76% 29.94 in 10.0 mi WNW 10.4 mph - N/A   Overcast
10:31 AM 44.1 °F 39.0 °F 35.1 °F 71% 29.94 in 10.0 mi West 9.2 mph - N/A   Overcast
10:53 AM 43.0 °F 37.2 °F 35.1 °F 74% 29.95 in 10.0 mi NW 10.4 mph - N/A   Overcast
11:09 AM 44.1 °F 37.7 °F 35.1 °F 71% 29.95 in 10.0 mi NW 12.7 mph - N/A   Overcast
11:46 AM 44.1 °F 38.6 °F 32.0 °F 63% 29.95 in 10.0 mi West 10.4 mph - N/A   Overcast
11:53 AM 44.1 °F 39.0 °F 32.0 °F 63% 29.96 in 10.0 mi WNW 9.2 mph - N/A   Overcast
12:53 PM 43.0 °F 38.2 °F 30.9 °F 62% 29.98 in 10.0 mi WNW 8.1 mph - N/A   Overcast
1:53 PM 43.0 °F 38.2 °F 28.9 °F 58% 29.99 in 10.0 mi WNW 8.1 mph - N/A   Overcast
2:53 PM 43.0 °F 39.5 °F 30.9 °F 62% 30.01 in 10.0 mi WNW 5.8 mph - N/A   Overcast
3:32 PM 41.0 °F 33.9 °F 30.9 °F 67% 30.02 in 10.0 mi NW 12.7 mph - N/A   Overcast
3:40 PM 41.0 °F 35.2 °F 30.9 °F 67% 30.02 in 10.0 mi NNW 9.2 mph - N/A   Overcast
3:53 PM 41.0 °F 35.2 °F 30.0 °F 65% 30.05 in 10.0 mi WNW 9.2 mph - N/A   Overcast
4:53 PM 39.9 °F 31.8 °F 28.0 °F 63% 30.07 in 10.0 mi NW 15.0 mph - N/A   Overcast
5:11 PM 39.0 °F 30.6 °F 28.0 °F 65% 30.07 in 10.0 mi NW 15.0 mph 20.7 mph N/A   Overcast
5:38 PM 37.9 °F 29.2 °F 27.0 °F 65% 30.09 in 10.0 mi NW 15.0 mph - N/A   Overcast
5:53 PM 37.0 °F 28.1 °F 26.1 °F 65% 30.12 in 10.0 mi NW 15.0 mph - N/A   Overcast
6:37 PM 37.0 °F 28.5 °F 25.0 °F 62% 30.13 in 10.0 mi NW 13.8 mph - N/A   Overcast
6:53 PM 37.0 °F 28.5 °F 25.0 °F 62% 30.14 in 10.0 mi NNW 13.8 mph - N/A   Overcast
7:53 PM 36.0 °F 29.0 °F 26.1 °F 67% 30.18 in 10.0 mi NNW 9.2 mph - N/A   Overcast
8:53 PM 36.0 °F 29.6 °F 26.1 °F 67% 30.20 in 10.0 mi NW 8.1 mph - N/A   Overcast
9:53 PM 35.1 °F 25.9 °F 24.1 °F 64% 30.22 in 10.0 mi NW 13.8 mph - N/A   Overcast
10:53 PM 34.0 °F 25.5 °F 23.0 °F 64% 30.27 in 10.0 mi NNW 11.5 mph - N/A   Overcast
11:53 PM 34.0 °F 25.0 °F 24.1 °F 67% 30.28 in 10.0 mi NW 12.7 mph - N/A   Overcast